Location: Delia
(51.6321°N, 112.3740°W)
Time: 19:51:19
(UTC+00:00)

Envisat - Pass Details

Date: 10 December 2021
Orbit: 764 x 766 km, 98.2° (Epoch: 26 January)

Event Time Altitude Azimuth Distance (km) Brightness Sun altitude
Rises 13:26:52 0° 10° (N) 3,248 6.2 -17.1°
Reaches altitude 10° 13:29:16 10° 4° (N) 2,317 5.4 -16.8°
Maximum altitude 13:34:05 43° 294° (WNW) 1,067 3.3 -16.1°
Drops below altitude 10° 13:38:51 10° 224° (SW) 2,300 5.2 -15.4°
Sets 13:41:14 0° 218° (SW) 3,222 6.0 -15.0°
